This demonstration page uses our WeatherBlox Daily Observations layout. Learn more.

Hourly Observations for March 6, 2020

Temp ( °F °C ) Dew Point ( °F °C ) Humidity (%) Winds ( mph kmh ) Pressure ( in mb ) Visibility ( mi km ) Precip ( " mm )
12:15 am 00:15 Clear 26 -3.3 14 -9.9 61 61 Calm 30.6 1036 10 16.0934 0 0
12:35 am 00:35 Clear 23 -5 14 -10 68 68 ENE 3 6 30.62 1037 10 16.0934 0 0
12:55 am 00:55 Clear 25 -3.9 15 -9.6 65 65 ENE 5 7 30.59 1036 10 16.0934 0 0
1:15 am 01:15 Clear 25 -3.9 15 -9.4 66 66 Calm 30.59 1036 10 16.0934 0 0
1:35 am 01:35 Clear 25 -3.8 15 -9.2 66 66 Calm 30.59 1036 10 16.0934 0 0
1:55 am 01:55 Clear 26 -3.6 17 -8.6 69 69 Calm 30.59 1036 10 16.0934 0 0
2:15 am 02:15 Clear 23 -5.1 14 -9.8 70 70 E 3 6 30.61 1036 10 16.0934 0 0
2:35 am 02:35 Clear 28 -2.5 17 -8.3 65 65 S 3 6 30.58 1036 10 16.0934 0 0
2:55 am 02:55 Clear 26 -3.2 18 -8 70 70 SSW 5 7 30.6 1036 10 16.0934 0 0
3:15 am 03:15 Clear 28 -2.3 17 -8.2 64 64 S 3 6 30.58 1036 10 16.0934 0 0
3:35 am 03:35 Clear 26 -3.5 16 -8.7 68 68 S 3 6 30.59 1036 10 16.0934 0 0
3:55 am 03:55 Clear 27 -2.8 18 -7.8 69 69 S 5 7 30.58 1036 10 16.0934 0 0
4:15 am 04:15 Clear 27 -3 19 -7.5 71 71 S 5 7 30.59 1036 10 16.0934 0 0
4:35 am 04:35 Clear 23 -4.9 16 -8.7 75 75 Calm 30.59 1036 10 16.0934 0 0
4:55 am 04:55 Clear 24 -4.4 17 -8.2 75 75 Calm 30.6 1036 10 16.0934 0 0
5:15 am 05:15 Clear 26 -3.6 19 -7.3 76 76 S 5 7 30.59 1036 10 16.0934 0 0
5:35 am 05:35 Clear 26 -3.4 19 -7.2 75 75 S 7 11 30.59 1036 10 16.0934 0 0
5:55 am 05:55 Clear 26 -3.2 19 -7.1 75 75 S 3 6 30.6 1036 10 16.0934 0 0
6:15 am 06:15 Clear 28 -2.4 20 -6.9 72 72 S 5 7 30.59 1036 10 16.0934 0 0
6:35 am 06:35 Clear 26 -3.6 18 -7.6 74 74 SSE 6 9 30.59 1036 10 16.0934 0 0
6:55 am 06:55 Clear 24 -4.4 17 -8.1 76 76 Calm 30.6 1036 10 16.0934 0 0
7:15 am 07:15 Sunny 25 -4.1 19 -7.5 77 77 SSE 7 11 30.6 1036 10 16.0934 0 0
7:35 am 07:35 Sunny 26 -3.5 20 -6.8 78 78 S 7 11 30.59 1036 10 16.0934 0 0
7:55 am 07:55 Sunny 29 -1.4 23 -5 77 77 SSE 8 13 30.56 1035 10 16.0934 0 0
8:15 am 08:15 Sunny 32 0 24 -4.5 72 72 SSE 12 19 30.55 1034 10 16.0934 0 0
8:35 am 08:35 Sunny 34 1.1 25 -3.7 71 71 SSE 13 20 30.54 1034 10 16.0934 0 0
8:55 am 08:55 Sunny 36 2 25 -3.7 66 66 SSE 17 28 30.53 1034 10 16.0934 0 0
9:15 am 09:15 Sunny 37 2.7 25 -3.8 63 63 SSE 14 22 30.52 1034 10 16.0934 0 0
9:35 am 09:35 Sunny 38 3.3 24 -4.2 58 58 SSE 17 28 30.51 1033 10 16.0934 0 0
9:55 am 09:55 Sunny 40 4.2 24 -4.4 54 54 SSE 16 26 30.51 1033 10 16.0934 0 0
10:15 am 10:15 Sunny 41 5.2 25 -4 52 52 S 14 22 30.49 1032 10 16.0934 0 0
10:35 am 10:35 Sunny 43 6.3 24 -4.3 47 47 SSE 16 26 30.48 1032 10 16.0934 0 0
10:55 am 10:55 Sunny 45 7.2 23 -5.2 41 41 SSE 16 26 30.46 1031 10 16.0934 0 0
11:15 am 11:15 Sunny 47 8.2 22 -5.3 38 38 SSE 17 28 30.44 1031 10 16.0934 0 0
11:35 am 11:35 Sunny 47 8.6 21 -6 35 35 SSE 17 28 30.43 1030 10 16.0934 0 0
11:55 am 11:55 Sunny 49 9.3 22 -5.7 34 34 SSE 21 33 30.41 1030 10 16.0934 0 0
12:15 pm 12:15 Sunny 50 9.8 22 -5.6 34 34 S 18 30 30.39 1029 10 16.0934 0 0
12:35 pm 12:35 Sunny 51 10.4 22 -5.5 33 33 S 20 31 30.38 1029 10 16.0934 0 0
12:55 pm 12:55 Sunny 52 11 23 -5.2 32 32 S 18 30 30.35 1028 10 16.0934 0 0
1:15 pm 13:15 Sunny 53 11.7 23 -5.1 31 31 SSE 21 33 30.34 1027 10 16.0934 0 0
1:35 pm 13:35 Sunny 54 12 23 -5.1 30 30 S 21 33 30.32 1027 10 16.0934 0 0
1:55 pm 13:55 Sunny 55 12.7 24 -4.5 30 30 S 21 33 30.3 1026 10 16.0934 0 0
2:15 pm 14:15 Sunny 56 13.2 24 -4.2 30 30 S 21 33 30.27 1025 10 16.0934 0 0
2:35 pm 14:35 Sunny 56 13.5 25 -4.1 29 29 S 18 30 30.26 1025 10 16.0934 0 0
2:55 pm 14:55 Sunny 56 13.5 25 -4 30 30 S 21 33 30.24 1024 10 16.0934 0 0
3:15 pm 15:15 Sunny 58 14.2 25 -3.9 29 29 S 20 31 30.24 1024 10 16.0934 0 0
3:35 pm 15:35 Sunny 58 14.5 25 -3.7 28 28 S 21 33 30.22 1023 10 16.0934 0 0
3:55 pm 15:55 Sunny 58 14.7 26 -3.5 28 28 SSE 20 31 30.21 1023 10 16.0934 0 0
4:15 pm 16:15 Sunny 58 14.5 25 -3.7 28 28 SSE 20 31 30.2 1023 10 16.0934 0 0
4:35 pm 16:35 Sunny 58 14.6 26 -3.6 28 28 SSE 20 31 30.19 1022 10 16.0934 0 0
4:55 pm 16:55 Sunny 57 14 26 -3.5 30 30 SSE 15 24 30.19 1022 10 16.0934 0 0
5:15 pm 17:15 Sunny 55 12.8 26 -3.3 33 33 SSE 16 26 30.2 1023 10 16.0934 0 0
5:35 pm 17:35 Sunny 56 13.5 27 -2.9 32 32 SE 16 26 30.18 1022 10 16.0934 0 0
5:55 pm 17:55 Sunny 55 13 27 -3 33 33 SSE 16 26 30.18 1022 10 16.0934 0 0
6:15 pm 18:15 Sunny 55 12.6 27 -3 34 34 SSE 16 26 30.18 1022 10 16.0934 0 0
6:35 pm 18:35 Clear 53 11.4 26 -3.1 36 36 SSE 14 22 30.18 1022 10 16.0934 0 0
6:55 pm 18:55 Clear 51 10.5 26 -3.2 38 38 SSE 14 22 30.19 1022 10 16.0934 0 0
7:15 pm 19:15 Clear 50 9.9 26 -3.1 40 40 SSE 13 20 30.19 1022 10 16.0934 0 0
7:35 pm 19:35 Clear 49 9.3 27 -3 42 42 SSE 12 19 30.21 1023 10 16.0934 0 0
7:55 pm 19:55 Clear 47 8.5 27 -3 45 45 SSE 10 17 30.22 1023 10 16.0934 0 0
8:15 pm 20:15 Clear 47 8.4 26 -3.1 45 45 SSE 12 19 30.22 1023 10 16.0934 0 0
8:35 pm 20:35 Clear 47 8.4 26 -3.1 45 45 SSE 15 24 30.21 1023 10 16.0934 0 0
8:55 pm 20:55 Clear 47 8.2 26 -3.1 45 45 SSE 16 26 30.21 1023 10 16.0934 0 0
9:15 pm 21:15 Clear 47 8.1 27 -3 46 46 SSE 16 26 30.21 1023 10 16.0934 0 0
9:35 pm 21:35 Clear 47 8.3 26 -3.1 45 45 S 17 28 30.21 1023 10 16.0934 0 0
9:55 pm 21:55 Clear 46 8 27 -3 46 46 S 18 30 30.2 1023 10 16.0934 0 0
10:15 pm 22:15 Clear 46 7.5 27 -2.8 48 48 S 20 31 30.21 1023 10 16.0934 0 0
10:35 pm 22:35 Clear 45 7.2 27 -2.7 50 50 S 18 30 30.2 1023 10 16.0934 0 0
10:55 pm 22:55 Clear 44 6.8 27 -2.6 52 52 S 17 28 30.2 1023 10 16.0934 0 0
11:15 pm 23:15 Clear 43 6.3 28 -2.5 54 54 S 18 30 30.2 1023 10 16.0934 0 0
11:35 pm 23:35 Clear 43 6.1 28 -2.5 54 54 S 16 26 30.2 1023 10 16.0934 0 0
11:55 pm 23:55 Clear 42 5.6 28 -2.5 56 56 S 16 26 30.19 1022 10 16.0934 0 0

Powered by AerisWeather